Pentagon, DC

8:03 AM EDT on September 30, 2014 (GMT -0400)
Washington | Change Station
CLOSE
Current Station
Airport
Location: Washington,
Elevation: 13 ft
Nearby Weather Stations

Elev 13 ft 38.85 °N, 77.03 °W | Updated 11 minutes ago

Overcast
Overcast
68 °F
Feels Like 68 °F
N
6
Wind Variable Wind from SE

Today
High -- | Low -- °F
--% Chance of Precip.
Yesterday
High -- | Low -- °F
Precip. -- in
7:02 AM 6:52 PM
Waxing Crescent, 36% visible
Pressure 29.94 in
Visibility 7.0 miles
Clouds Few 900 ft
Overcast 1400 ft
Dew Point 62 °F
Humidity 81%
Rainfall 0.00 in
Snow Depth Not available.
UV 0 out of 12
Pollen 2.90 out of 12
Air Quality Not available.
Flu Activity Not available.
METAR KDCA 301152Z 13005KT 7SM FEW009 OVC014 20/17 A2994 RMK AO2 SLP138 BINOVC T02000167 10200 20194 53009

More Conditions Fewer Conditions

Pressure 29.94 in
Visibility 7.0 miles
Clouds Few 900 ft
Overcast 1400 ft
Dew Point 62 °F
Humidity 81%
Rainfall 0.00 in
Snow Depth Not available.
UV 0 out of 12
Pollen 2.90 out of 12
Air Quality Not available.
Flu Activity Not available.
METAR KDCA 301152Z 13005KT 7SM FEW009 OVC014 20/17 A2994 RMK AO2 SLP138 BINOVC T02000167 10200 20194 53009

More Conditions Fewer Conditions

Nowcast | as of 5:51 am EDT on September 30, 2014

Patchy dense fog will develop across portions of the mid-Atlantic region through into the Post-dawn hours. From the northern Virginia foothills...across the Piedmont and into the metropolitan Washington and Baltimore areas...local visibilities will be reduced to within a quarter mile at times. Portions of the northern Shenandoah Valley also seeing reduced visibilities. Please use caution and low-beam headlights when driving.

×

10-Day Weather Forecast

Almanac

Astronomy

Sep. 30, 2014 Rise Set
Actual Time 7:02 AM EDT 6:52 PM EDT
Civil Twilight 6:36 AM EDT 7:18 PM EDT
Nautical Twilight 6:05 AM EDT 7:49 PM EDT
Astronomical Twilight 5:34 AM EDT 8:20 PM EDT
Moon 1:06 PM EDT 11:22 PM EDT
Length of Visible Light 12h 42m
Length of Day
11h 49m
Tomorrow will be 2m 31s shorter.
Waxing Crescent, 36% of the Moon is Illuminated
Today
Waxing Crescent
Oct 1
First Quarter
Oct 8
Full
Oct 15
Last Quarter
Oct 23
New

Today's Extremes

State Highs State Lows

Community

WunderPhotos

Upload Photos

1,757,619 photos uploaded!

Nearby

Snow Depth

Station Depth Elevation
No new snow has been reported.

Earthquake Activity

City Distance Mag. Time & Date
No recent earthquake activity has been reported nearby.
Minimum magnitude displayed is 2.5.

Coastal Water Temperatures

Place Temperature
Washington, DC 71.1 °F
Baltimore, MD 73.9 °F
Solomons Island, MD 72.0 °F

Nearby Weather Stations